When you browse on this site, cookies collect data to enhance your experience and personalize the content and advertising you see.
Visit our Privacy Policy to learn more. By continuing to use the site, you agree to this use of cookies and data.
  • In Hungary
  • List of Countries
  • For 7 days
  • Water Temperature
  • Weather Map
  • News
  • Weather Widgets
  • user-avatar
    Login

    Hourly Weather Seversk

    Today, 22 November, Friday

    Time Temperature Precipitation Wind Pressure Humidity
    00:00 -13°C° 0 mm 8 mps 775 mmHg 41%
    01:00 -13°C° 0 mm 7 mps 775 mmHg 44%
    02:00 -13°C° 0 mm 7 mps 775 mmHg 47%
    03:00 -13°C° 0 mm 7 mps 775 mmHg 51%
    04:00 -14°C° 0 mm 7 mps 775 mmHg 51%
    05:00 -14°C° 0 mm 7 mps 775 mmHg 51%
    06:00 -14°C° 0 mm 7 mps 775 mmHg 51%
    07:00 -14°C° 0 mm 7 mps 775 mmHg 51%
    08:00 -13°C° 0 mm 8 mps 774 mmHg 50%
    09:00 -13°C° 0 mm 8 mps 774 mmHg 50%
    10:00 -12°C° 0 mm 8 mps 774 mmHg 45%
    11:00 -11°C° 0 mm 8 mps 774 mmHg 41%
    12:00 -10°C° 0 mm 8 mps 774 mmHg 36%
    13:00 -8°C° 0 mm 7 mps 774 mmHg 35%
    14:00 -7°C° 0 mm 7 mps 773 mmHg 33%
    15:00 -7°C° 0 mm 7 mps 773 mmHg 32%
    16:00 -8°C° 0 mm 7 mps 773 mmHg 33%
    17:00 -8°C° 0 mm 7 mps 772 mmHg 35%
    18:00 -9°C° 0 mm 7 mps 772 mmHg 36%
    19:00 -9°C° 0 mm 7 mps 772 mmHg 36%
    20:00 -11°C° 0 mm 7 mps 773 mmHg 36%
    21:00 -11°C° 0 mm 7 mps 773 mmHg 36%
    22:00 -11°C° 0 mm 7 mps 773 mmHg 39%
    23:00 -11°C° 0 mm 7 mps 772 mmHg 41%

    Tomorrow, 23 November, Saturday

    Time Temperature Precipitation Wind Pressure Humidity
    00:00 -12°C° 0 mm 7 mps 772 mmHg 43%
    01:00 -11°C° 0 mm 6 mps 772 mmHg 44%
    02:00 -11°C° 0 mm 6 mps 772 mmHg 44%
    03:00 -11°C° 0 mm 6 mps 772 mmHg 45%
    04:00 -11°C° 0 mm 6 mps 772 mmHg 45%
    05:00 -11°C° 0 mm 6 mps 771 mmHg 46%
    06:00 -11°C° 0 mm 6 mps 771 mmHg 46%
    07:00 -11°C° 0 mm 6 mps 771 mmHg 44%
    08:00 -11°C° 0 mm 6 mps 771 mmHg 43%
    09:00 -12°C° 0 mm 7 mps 772 mmHg 41%
    10:00 -9°C° 0 mm 7 mps 771 mmHg 37%
    11:00 -8°C° 0 mm 7 mps 771 mmHg 32%
    12:00 -6°C° 0 mm 7 mps 770 mmHg 28%
    13:00 -6°C° 0 mm 7 mps 770 mmHg 26%
    14:00 -4°C° 0 mm 7 mps 770 mmHg 25%
    15:00 -3°C° 0 mm 7 mps 769 mmHg 23%
    16:00 -4°C° 0 mm 6 mps 769 mmHg 25%
    17:00 -5°C° 0 mm 6 mps 769 mmHg 26%
    18:00 -6°C° 0 mm 6 mps 769 mmHg 27%
    19:00 -6°C° 0 mm 6 mps 769 mmHg 29%
    20:00 -6°C° 0 mm 6 mps 769 mmHg 31%
    21:00 -8°C° 0 mm 6 mps 769 mmHg 32%
    22:00 -8°C° 0 mm 6 mps 769 mmHg 34%
    23:00 -8°C° 0 mm 6 mps 769 mmHg 36%

    Day after tomorrow, 24 November, Sunday

    Time Temperature Precipitation Wind Pressure Humidity
    00:00 -9°C° 0 mm 6 mps 769 mmHg 38%
    01:00 -9°C° 0 mm 6 mps 769 mmHg 39%
    02:00 -9°C° 0 mm 6 mps 769 mmHg 40%
    03:00 -9°C° 0 mm 6 mps 769 mmHg 40%
    04:00 -9°C° 0 mm 6 mps 768 mmHg 41%
    05:00 -9°C° 0 mm 6 mps 768 mmHg 42%
    06:00 -9°C° 0 mm 6 mps 768 mmHg 43%
    07:00 -9°C° 0 mm 6 mps 768 mmHg 43%
    08:00 -9°C° 0 mm 6 mps 768 mmHg 43%
    09:00 -9°C° 0 mm 6 mps 768 mmHg 43%
    10:00 -6°C° 0 mm 6 mps 768 mmHg 39%
    11:00 -5°C° 0 mm 6 mps 768 mmHg 35%
    12:00 -4°C° 0 mm 7 mps 767 mmHg 32%
    13:00 -3°C° 0 mm 6 mps 767 mmHg 31%
    14:00 -3°C° 0 mm 6 mps 767 mmHg 30%
    15:00 -2°C° 0 mm 6 mps 767 mmHg 29%
    16:00 -3°C° 0 mm 6 mps 767 mmHg 32%
    17:00 -4°C° 0 mm 6 mps 767 mmHg 36%
    18:00 -5°C° 0 mm 6 mps 767 mmHg 40%
    19:00 -5°C° 0 mm 6 mps 767 mmHg 44%
    20:00 -5°C° 0 mm 6 mps 767 mmHg 48%
    21:00 -6°C° 0 mm 6 mps 767 mmHg 53%
    22:00 -6°C° 0 mm 5 mps 766 mmHg 55%
    23:00 -6°C° 0 mm 5 mps 766 mmHg 58%

    25 November, Monday

    Time Temperature Precipitation Wind Pressure Humidity
    00:00 -6°C° 0 mm 5 mps 766 mmHg 60%
    01:00 -7°C° 0 mm 5 mps 766 mmHg 63%
    02:00 -7°C° 0 mm 5 mps 766 mmHg 67%
    03:00 -7°C° 0 mm 5 mps 766 mmHg 70%
    04:00 -7°C° 0 mm 5 mps 765 mmHg 72%
    05:00 -7°C° 0 mm 5 mps 765 mmHg 74%
    06:00 -7°C° 0 mm 5 mps 765 mmHg 76%
    07:00 -8°C° 0 mm 6 mps 765 mmHg 73%
    08:00 -8°C° 0 mm 6 mps 765 mmHg 71%
    09:00 -8°C° 0 mm 6 mps 765 mmHg 69%
    10:00 -6°C° 0 mm 6 mps 765 mmHg 64%
    11:00 -4°C° 0 mm 6 mps 764 mmHg 58%
    12:00 -3°C° 0 mm 6 mps 764 mmHg 53%
    13:00 -2°C° 0 mm 6 mps 764 mmHg 51%
    14:00 -2°C° 0 mm 6 mps 764 mmHg 50%
    15:00 -1°C° 0 mm 6 mps 763 mmHg 48%
    16:00 -2°C° 0 mm 6 mps 763 mmHg 48%
    17:00 -2°C° 0 mm 5 mps 763 mmHg 48%
    18:00 -4°C° 0 mm 5 mps 763 mmHg 48%
    19:00 -4°C° 0 mm 5 mps 763 mmHg 48%
    20:00 -5°C° 0 mm 5 mps 763 mmHg 48%
    21:00 -5°C° 0 mm 5 mps 763 mmHg 48%
    22:00 -5°C° 0 mm 5 mps 763 mmHg 49%
    23:00 -6°C° 0 mm 5 mps 763 mmHg 50%

    26 November, Tuesday

    Time Temperature Precipitation Wind Pressure Humidity
    00:00 -6°C° 0 mm 5 mps 763 mmHg 50%
    01:00 -6°C° 0 mm 5 mps 762 mmHg 52%
    02:00 -6°C° 0 mm 5 mps 762 mmHg 53%
    03:00 -7°C° 0 mm 5 mps 762 mmHg 54%
    04:00 -7°C° 0 mm 5 mps 762 mmHg 56%
    05:00 -7°C° 0 mm 5 mps 762 mmHg 59%
    06:00 -7°C° 0 mm 5 mps 761 mmHg 61%
    07:00 -8°C° 0 mm 6 mps 761 mmHg 63%
    08:00 -6°C° 0 mm 6 mps 761 mmHg 65%
    09:00 -6°C° 0 mm 6 mps 761 mmHg 67%
    10:00 -5°C° 0 mm 6 mps 761 mmHg 66%
    11:00 -3°C° 0 mm 6 mps 761 mmHg 65%
    12:00 -2°C° 0 mm 6 mps 761 mmHg 64%
    13:00 -1°C° 0 mm 6 mps 760 mmHg 63%
    14:00 -1°C° 0 mm 6 mps 760 mmHg 62%
    15:00 +1°C° 0 mm 6 mps 759 mmHg 61%
    16:00 0°C° 0 mm 5 mps 759 mmHg 63%
    17:00 -1°C° 0 mm 5 mps 759 mmHg 66%
    18:00 -2°C° 0 mm 5 mps 759 mmHg 69%
    19:00 -2°C° 0 mm 5 mps 759 mmHg 70%
    20:00 -2°C° 0 mm 5 mps 759 mmHg 71%
    21:00 -2°C° 0 mm 5 mps 759 mmHg 72%
    22:00 -4°C° 0 mm 5 mps 759 mmHg 74%
    23:00 -4°C° 0 mm 5 mps 759 mmHg 76%

    27 November, Wednesday

    Time Temperature Precipitation Wind Pressure Humidity
    00:00 -4°C° 0 mm 5 mps 759 mmHg 78%
    01:00 -4°C° 0 mm 5 mps 759 mmHg 80%
    02:00 -4°C° 0 mm 4 mps 758 mmHg 82%
    03:00 -4°C° 0 mm 4 mps 758 mmHg 84%
    04:00 -4°C° 0 mm 4 mps 758 mmHg 85%
    05:00 -4°C° 0 mm 4 mps 758 mmHg 86%
    06:00 -3°C° 0 mm 4 mps 758 mmHg 86%
    07:00 -3°C° 0 mm 4 mps 758 mmHg 86%
    08:00 -3°C° 0 mm 4 mps 758 mmHg 87%
    09:00 -2°C° 0 mm 4 mps 758 mmHg 87%
    10:00 -1°C° 0 mm 4 mps 758 mmHg 84%
    11:00 0°C° 0 mm 4 mps 758 mmHg 81%
    12:00 +1°C° 0 mm 5 mps 758 mmHg 77%
    13:00 +1°C° 0 mm 4 mps 758 mmHg 76%
    14:00 +1°C° 0 mm 4 mps 758 mmHg 75%
    15:00 +3°C° 0 mm 4 mps 758 mmHg 73%
    16:00 +2°C° 0 mm 3 mps 758 mmHg 76%
    17:00 +1°C° 0 mm 3 mps 758 mmHg 79%
    18:00 +1°C° 0 mm 3 mps 758 mmHg 82%
    19:00 +1°C° 0 mm 3 mps 758 mmHg 82%
    20:00 +1°C° 0 mm 3 mps 758 mmHg 81%
    21:00 +1°C° 0 mm 3 mps 758 mmHg 81%
    22:00 +1°C° 0 mm 3 mps 758 mmHg 82%
    23:00 +1°C° 0 mm 3 mps 758 mmHg 82%
    Show more